[[{"header":{"parameterUnit":"m.s-1","parameterCategory":1,"la1":30.2991,"la2":30.254,"lo1":-89.0895,"lo2":-89.0444,"dy":0.0017,"dx":0.0017,"nx":28,"ny":28,"refTime":"2023-10-27T09:00:00:Z","depth":0,"parameterNumber":2,"parameterNumberName":"U-component_of_WINDS"},"data":[0,0,0,0,0,0,0,0,0,0,0,0,0,0,0,0,0,0,0,0,0,0,0,0,0,0,0,0,0,0,0,0,0,0,0,0,0,0,0,0,0,0,0,0,0,0,0,0,0,0,0,0,0,0,0,0,0,0,-4.0526,-4.0525,0,-4.0467,-4.0466,-4.0465,-4.0345,-4.0343,-4.0341,-4.0338,-4.0279,-4.028,-4.0281,0,0,0,0,0,0,0,0,0,0,0,0,0,-4.0538,-4.0538,-4.0526,-4.0525,-4.0524,-4.0467,-4.0466,-4.0465,-4.0346,-4.0343,-4.034,-4.0337,-4.0279,-4.028,-4.0281,0,0,0,0,0,0,0,0,0,0,0,0,0,-4.0511,-4.0538,-4.0526,-4.0458,-4.0451,-4.0467,-4.0466,-4.0465,-4.0346,-4.0343,-4.0339,-4.0336,-4.0279,-4.028,-4.0281,-4.0359,0,0,-4.0284,-4.0284,0,0,0,0,0,0,0,0,-4.0513,-4.0511,-4.0468,-4.0462,-4.0455,-4.041,-4.0448,-4.0429,-4.0347,-4.0386,-4.0338,-4.0334,-4.0326,-4.0323,-4.0319,-4.0356,-4.0353,-4.0284,-4.0284,-4.0285,-4.0285,0,0,0,0,0,0,0,-4.0515,-4.0513,-4.0502,-4.0468,-4.046,-4.0431,-4.0423,-4.0444,-4.0377,-4.0382,-4.0374,-4.0368,-4.0321,-4.0319,-4.0317,-4.0352,-4.0284,-4.0285,-4.0285,-4.0286,-4.0452,-4.0456,0,0,0,0,0,0,-4.0526,-4.0515,-4.0504,-4.05,-4.0476,-4.0434,-4.0425,-4.0428,-4.0376,-4.0365,-4.0371,-4.0363,-4.0319,-4.0316,-4.0315,-4.0403,-4.0285,-4.0286,-4.0286,-4.0448,-4.0453,-4.0457,0,0,0,0,0,0,-4.0527,-4.0526,-4.0506,-4.0505,-4.0501,-4.0437,-4.0441,-4.0429,-4.0426,-4.0368,-4.0355,-4.0381,-4.0316,-4.0313,-4.0349,-4.04,-4.0286,-4.0287,-4.0444,-4.045,-4.0455,-4.0581,0,0,0,0,0,0,-4.0528,-4.0527,-4.0555,-4.0507,-4.0501,-4.0541,-4.0444,-4.043,-4.0428,-4.0416,-4.0373,-4.0363,-4.0313,-4.0348,-4.035,-4.0399,-4.0288,-4.0439,-4.0446,-4.0453,-4.0572,-4.059,-4.0606,0,0,0,0,0,-4.0529,-4.0593,-4.0557,-4.0557,-4.0535,-4.0544,-4.0541,-4.0482,-4.0432,-4.046,-4.0424,-4.0364,-4.0394,-4.0353,-4.0354,-4.0404,-4.0435,-4.0444,-4.0453,-4.0564,-4.0587,-4.0606,0,0,0,0,0,0,-4.0649,-4.0585,-4.0545,-4.0595,-4.0576,-4.0524,-4.0557,-4.0507,-4.0501,-4.0491,-4.0418,-4.0409,-4.0455,-4.0433,-4.0388,-4.0478,-4.0405,-4.0415,-4.049,-4.0511,-4.0528,-4.0532,-4.0289,0,0,0,0,0,-4.0681,-4.0694,-4.0638,-4.0688,-4.068,-4.0621,-4.0623,-4.0579,-4.0556,-4.0548,-4.0513,-4.0494,-4.0499,-4.0504,-4.0505,-4.0569,-4.0559,-4.0604,-4.0621,-4.0635,-4.0644,-4.0678,-4.0698,-4.0485,-4.0485,-4.0485,0,0,-4.0748,-4.0715,-4.0727,-4.0711,-4.0691,-4.0707,-4.0615,-4.0634,-4.0646,-4.0551,-4.0582,-4.0557,-4.0531,-4.0582,-4.0602,-4.0564,-4.0701,-4.0646,-4.0658,-4.0659,-4.0689,-4.0709,-4.0727,-4.0491,-4.049,-4.0489,0,0,-4.0878,-4.0854,-4.0893,-4.0876,-4.0847,-4.0807,-4.0817,-4.0773,-4.0753,-4.0784,-4.0713,-4.0726,-4.0736,-4.0721,-4.0715,-4.0842,-4.0788,-4.0845,-4.0934,-4.0968,-4.0984,-4.0999,-4.1045,-4.1063,-4.0854,-4.0854,-4.0855,0,-4.0964,-4.0984,-4.092,-4.0945,-4.0941,-4.0856,-4.0897,-4.0883,-4.0856,-4.0856,-4.0814,-4.0826,-4.0803,-4.0849,-4.0881,-4.0878,-4.0888,-4.0849,-4.0987,-4.1001,-4.1013,-4.1057,-4.1075,-4.0861,-4.0861,-4.086,-4.0859,0,-4.1093,-4.1108,-4.1144,-4.1121,-4.112,-4.1153,-4.1096,-4.1103,-4.1061,-4.1027,-4.1061,-4.103,-4.1024,-4.1032,-4.099,-4.1074,-4.1052,-4.1,-4.0926,-4.1042,-4.1082,-4.1098,-4.0872,-4.0869,-4.0867,-4.0865,0,0,-4.1294,-4.1237,-4.1251,-4.1241,-4.1204,-4.1215,-4.1245,-4.124,-4.1249,-4.1234,-4.1258,-4.127,-4.1223,-4.1216,-4.1172,-4.1202,-4.1307,-4.1146,-4.1144,-4.1177,-4.1399,-4.1438,-4.1458,-4.1271,-4.1274,-4.1276,-4.1401,0,-4.1415,-4.1462,-4.1407,-4.1466,-4.1481,-4.1402,-4.1429,-4.141,-4.138,-4.1389,-4.1355,-4.1365,-4.1301,-4.1297,-4.1323,-4.1288,-4.135,-4.1279,-4.1294,-4.1295,-4.1302,-4.1479,-4.152,-4.1639,-4.1416,-4.1419,-4.1421,0,-4.1562,-4.1555,-4.1617,-4.1578,-4.1582,-4.1607,-4.1599,-4.1608,-4.1586,-4.1562,-4.1556,-4.1504,-4.1532,-4.1462,-4.15,-4.1453,-4.1456,-4.1441,-4.1444,-4.1443,-4.1365,-4.1483,-4.1675,-4.1693,-4.1444,-4.1442,-4.1441,0,-4.1704,-4.171,-4.1748,-4.1741,-4.1697,-4.1717,-4.1699,-4.1674,-4.1675,-4.1669,-4.1669,-4.1667,-4.1665,-4.1665,-4.1615,-4.1567,-4.1661,-4.1585,-4.1642,-4.1644,-4.1664,-4.1664,-4.1861,-4.1668,-4.1667,-4.1667,-4.1667,0,-4.1845,-4.1885,-4.1811,-4.1834,-4.1878,-4.1815,-4.1861,-4.1836,-4.1815,-4.1833,-4.1765,-4.1784,-4.1716,-4.1728,-4.1689,-4.1728,-4.1727,-4.171,-4.1699,-4.1716,-4.1718,-4.1716,-4.1707,-4.1672,-4.1671,-4.167,-4.1669,0,-4.2009,-4.1961,-4.1997,-4.1954,-4.1944,-4.1978,-4.1941,-4.1962,-4.1928,-4.1952,-4.1954,-4.1902,-4.1913,-4.1862,-4.1864,-4.1838,-4.1897,-4.1872,-4.1905,-4.1897,-4.1958,-4.1953,-4.216,-4.2184,-4.1976,-4.1978,-4.198,0,-4.2102,-4.2132,-4.2092,-4.2099,-4.2086,-4.2098,-4.2099,-4.204,-4.2045,-4.2024,-4.2047,-4.2053,-4.2054,-4.2075,-4.2038,-4.204,-4.2014,-4.2087,-4.2014,-4.2031,-4.2016,-4.2015,-4.2018,-4.2102,-4.2104,-4.2106,-4.2108,0,-4.2272,-4.2248,-4.2252,-4.2249,-4.2253,-4.2248,-4.2238,-4.2248,-4.2184,-4.2193,-4.2203,-4.2204,-4.2207,-4.2214,-4.2209,-4.2192,-4.214,-4.2132,-4.2145,-4.2162,-4.218,-4.2172,-4.1946,-4.2127,-4.2125,-4.2124,-4.2123,-4.2122,-4.2404,-4.2427,-4.2404,-4.2411,-4.2398,-4.2392,-4.2409,-4.2379,-4.2386,-4.2384,-4.2349,-4.2367,-4.2347,-4.2334,-4.2323,-4.2337,-4.2303,-4.2322,-4.2327,-4.2333,-4.2343,-4.2179,-4.2336,-4.2335,-4.2334,-4.2334,-4.2333,0,-4.2571,-4.2552,-4.256,-4.255,-4.2557,-4.2508,-4.2495,-4.2505,-4.2521,-4.2507,-4.251,-4.2523,-4.253,-4.2495,-4.2497,-4.2515,-4.2492,-4.2518,-4.2516,-4.2513,-4.2373,-4.2362,-4.2537,-4.2537,-4.2537,-4.2537,-4.2537,-4.2537,-4.2658,-4.2696,-4.2669,-4.2701,-4.2682,-4.2699,-4.2696,-4.269,-4.2679,-4.2697,-4.2702,-4.2679,-4.2657,-4.2658,-4.2663,-4.2652,-4.2656,-4.2691,-4.2673,-4.2543,-4.2523,-4.2504,-4.2492,-4.2692,-4.2693,-4.2811,-4.2812,-4.2813]},{"header":{"parameterUnit":"m.s-1","parameterCategory":1,"la1":30.2991,"la2":30.254,"lo1":-89.0895,"lo2":-89.0444,"dy":0.0017,"dx":0.0017,"nx":28,"ny":28,"refTime":"2023-10-27T09:00:00:Z","depth":0,"parameterNumber":3,"parameterNumberName":"V-component_of_WINDS"},"data":[0,0,0,0,0,0,0,0,0,0,0,0,0,0,0,0,0,0,0,0,0,0,0,0,0,0,0,0,0,0,0,0,0,0,0,0,0,0,0,0,0,0,0,0,0,0,0,0,0,0,0,0,0,0,0,0,0,0,1.0736,1.0736,0,1.0798,1.0799,1.0799,1.0916,1.0918,1.092,1.0922,1.0978,1.0978,1.0977,0,0,0,0,0,0,0,0,0,0,0,0,0,1.0711,1.0711,1.0736,1.0736,1.0737,1.0798,1.0799,1.0799,1.0915,1.0918,1.0921,1.0923,1.0978,1.0978,1.0977,0,0,0,0,0,0,0,0,0,0,0,0,0,1.0742,1.0711,1.0735,1.0802,1.0809,1.0798,1.0799,1.08,1.0915,1.0918,1.0921,1.0925,1.0979,1.0978,1.0977,1.0903,0,0,1.0974,1.0974,0,0,0,0,0,0,0,0,1.074,1.0743,1.0792,1.0798,1.0805,1.0853,1.0811,1.0834,1.0914,1.0874,1.0922,1.0926,1.0933,1.0936,1.094,1.0905,1.0908,1.0974,1.0973,1.0973,1.0973,0,0,0,0,0,0,0,1.0738,1.0741,1.076,1.0792,1.0801,1.0827,1.0836,1.0816,1.0883,1.0878,1.0887,1.0893,1.0937,1.0941,1.0942,1.0909,1.0974,1.0973,1.0973,1.0972,1.0817,1.0813,0,0,0,0,0,0,1.0727,1.0738,1.0758,1.0762,1.0781,1.0825,1.0834,1.0834,1.0884,1.0895,1.089,1.0898,1.0941,1.0943,1.0945,1.0861,1.0973,1.0972,1.0972,1.082,1.0816,1.0812,0,0,0,0,0,0,1.0726,1.0727,1.0756,1.0752,1.0758,1.0822,1.082,1.0833,1.0837,1.0893,1.0905,1.0881,1.0944,1.0946,1.0913,1.0865,1.0972,1.0971,1.0824,1.0819,1.0814,1.0693,0,0,0,0,0,0,1.0724,1.0726,1.07,1.0751,1.0758,1.0724,1.0818,1.0832,1.0836,1.0847,1.0888,1.0898,1.0946,1.0914,1.0912,1.0865,1.097,1.0829,1.0822,1.0816,1.0702,1.0685,1.067,0,0,0,0,0,1.0723,1.0662,1.0698,1.07,1.0727,1.0721,1.0725,1.0784,1.0831,1.0805,1.0841,1.0897,1.0871,1.0909,1.0908,1.0861,1.0832,1.0824,1.0816,1.0709,1.0688,1.067,0,0,0,0,0,0,1.06,1.067,1.0711,1.0664,1.0686,1.0741,1.0709,1.0759,1.0766,1.0776,1.0847,1.0855,1.0812,1.0834,1.0875,1.0792,1.086,1.0852,1.0779,1.076,1.0744,1.0739,1.0969,0,0,0,0,0,1.0568,1.056,1.0621,1.0574,1.0583,1.0644,1.0644,1.0688,1.0712,1.0721,1.0755,1.0775,1.0771,1.0767,1.0767,1.0707,1.0716,1.0673,1.0657,1.0644,1.0635,1.0604,1.0585,1.0786,1.0786,1.0786,0,0,1.0501,1.0538,1.0528,1.055,1.0572,1.056,1.0651,1.0634,1.0625,1.0718,1.0689,1.0715,1.0741,1.0694,1.0675,1.0711,1.0582,1.0634,1.0622,1.0621,1.0594,1.0575,1.0558,1.078,1.0781,1.0782,0,0,1.0372,1.04,1.0365,1.0386,1.042,1.0461,1.0452,1.05,1.0521,1.0495,1.0564,1.0553,1.0546,1.0562,1.0569,1.0449,1.05,1.0447,1.0362,1.0331,1.0315,1.0302,1.0257,1.0241,1.0438,1.0438,1.0438,0,1.0283,1.0271,1.0339,1.0319,1.0326,1.0413,1.0376,1.0393,1.0423,1.0425,1.0465,1.0459,1.0483,1.0441,1.0411,1.0415,1.0406,1.0441,1.0313,1.03,1.0288,1.0246,1.023,1.0431,1.0432,1.0432,1.0433,0,1.016,1.015,1.0117,1.0147,1.0151,1.0122,1.0185,1.018,1.0224,1.026,1.0231,1.0264,1.0272,1.0265,1.0307,1.0229,1.025,1.03,1.037,1.0261,1.0223,1.0208,1.0421,1.0424,1.0426,1.0427,0,0,0.9952,1.0024,1.001,1.0025,1.007,1.0063,1.0038,1.0049,1.0043,1.0061,1.0041,1.0034,1.0081,1.0089,1.0133,1.0107,1.0008,1.0161,1.0162,1.013,0.9923,0.9884,0.9865,1.0044,1.0041,1.0039,0.9921,0,0.9832,0.9796,0.9858,0.9806,0.9798,0.9881,0.9859,0.9883,0.9916,0.9912,0.9949,0.9942,1.0006,1.0011,0.9989,1.0025,0.9967,1.0035,1.0023,1.0022,1.0012,0.9845,0.9803,0.969,0.9906,0.9904,0.9902,0,0.9686,0.9701,0.965,0.9699,0.9697,0.9677,0.9692,0.9688,0.9716,0.9743,0.9753,0.9806,0.9784,0.9853,0.9821,0.9866,0.9865,0.9882,0.9879,0.9878,0.9954,0.9838,0.9656,0.9638,0.988,0.9882,0.9883,0,0.9539,0.9546,0.9517,0.9527,0.9584,0.9567,0.959,0.9622,0.9625,0.9637,0.964,0.9648,0.9652,0.9657,0.9711,0.9757,0.9672,0.9746,0.9691,0.969,0.9668,0.9668,0.9481,0.967,0.967,0.9671,0.9671,0,0.9398,0.9362,0.9451,0.9433,0.9395,0.9466,0.9427,0.9457,0.9486,0.9473,0.9545,0.9531,0.9604,0.9597,0.9639,0.9606,0.9608,0.9627,0.9638,0.9619,0.9616,0.9618,0.9626,0.9666,0.9667,0.9668,0.9669,0,0.9226,0.9284,0.9257,0.9315,0.9328,0.9298,0.9346,0.933,0.9369,0.9352,0.9352,0.9413,0.9409,0.9464,0.947,0.9498,0.9445,0.9471,0.9436,0.9444,0.9385,0.9389,0.9191,0.9168,0.9373,0.9371,0.9369,0,0.9131,0.9106,0.9162,0.916,0.918,0.9175,0.918,0.9248,0.9249,0.9281,0.926,0.9263,0.9269,0.9258,0.9301,0.9306,0.9331,0.9262,0.9332,0.9314,0.9329,0.9329,0.9326,0.9246,0.9243,0.9241,0.9239,0,0.8955,0.8986,0.8991,0.9006,0.901,0.9024,0.9043,0.9036,0.9111,0.9108,0.9107,0.9112,0.912,0.912,0.9134,0.9155,0.9208,0.9217,0.9205,0.9184,0.9165,0.9173,0.9394,0.9221,0.9223,0.9224,0.9225,0.9226,0.8818,0.8801,0.8837,0.884,0.8863,0.8879,0.8867,0.8906,0.8907,0.8921,0.8961,0.8952,0.8982,0.9006,0.9022,0.9015,0.9048,0.903,0.9025,0.9019,0.9008,0.9168,0.9017,0.9018,0.9019,0.9019,0.9019,0,0.8646,0.8674,0.8677,0.8702,0.8704,0.8759,0.8783,0.878,0.8772,0.8797,0.8802,0.8799,0.8801,0.8845,0.8852,0.8837,0.8862,0.8837,0.8837,0.8841,0.8978,0.8988,0.8817,0.8817,0.8817,0.8817,0.8817,0.8817,0.8556,0.8529,0.8564,0.8548,0.8577,0.8571,0.858,0.8595,0.8615,0.861,0.8613,0.8643,0.8675,0.8685,0.8688,0.8701,0.8699,0.8665,0.8685,0.8812,0.8831,0.885,0.8859,0.8664,0.8664,0.8549,0.8548,0.8547]}]]